Regional Weather Roundup
Issued by NWS

Current Version | Previous Version | Text Only | Print | Product List | Glossary On
Versions: 1 2 3 4 5 6 7 8 9 10 11 12 13 14 15 16 17 18 19 20 21 22 23 24 25 26 27 28 29 30 31 32 33 34 35 36 37 38 39 40 41 42 43 44 45 46 47 48 49 50
000
ASHW40 PHFO 050532
RWRHI

WEATHER ROUNDUP FOR HAWAII
NATIONAL WEATHER SERVICE HONOLULU HI
700 PM HST THU MAR 04 2021

THIS IS AN AUTOMATED REPORT THAT HAS NOT BEEN QUALITY CONTROLLED.

NOTE..."FAIR" INDICATES FEW OR NO CLOUDS BELOW 12,000 FEET WITH NO
SIGNIFICANT WEATHER AND/OR OBSTRUCTIONS TO VISIBILITY.

* - THESE SITES REPORT LIMITED FIELDS
# - BUOY DATA PROVIDED BY PACIFIC ISLANDS OCEAN OBSERVING SYSTEM.

HIZ001>004-050600-
KAUAI-NIIHAU-

CITY           SKY/WX    TMP DP  RH WIND       PRES   REMARKS
LIHUE APT      LGT RAIN  67  64  90 NE24      30.10S
PORT ALLEN*      N/A     68 N/A N/A N2G9        N/A
POIPU*         NOT AVBL
PRINCEVILLE*     N/A     66 N/A N/A NE7G14      N/A
KOKOLE POINT*  NOT AVBL
MOLOAA DAIRY*    N/A     66  63  88 E1G8        N/A
WAIMEA HTS*    NOT AVBL
PUU OPAE*      NOT AVBL
PUU LUA*       NOT AVBL
MAKAHA RIDGE*    N/A     61  59  94 NE6G13      N/A
$$

HIZ005>011-050600-
OAHU-

CITY           SKY/WX    TMP DP  RH WIND       PRES   REMARKS
HONOLULU       MOCLDY    72  59  63 N6        30.06R
KALAELOA       MOCLDY    73  60  63 NE7       30.08R
KANEOHE MCB    MOCLDY    72  61  68 E13       30.05
WHEELER FIELD  FAIR      67  61  79 N7        30.09R
BELLOWS*         N/A     73 N/A N/A NE18        N/A
KAHUKU*          N/A     72 N/A N/A NE3G9       N/A
WHEELER*       NOT AVBL
WAIANAE HARBOR NOT AVBL
DILLINGHAM*      N/A    N/A N/A N/A E1          N/A
KAHUKU TRN*      N/A     70  59  68 E6G14       N/A
KAWAILOA*      NOT AVBL
KII*             N/A     72  61  68 NE12        N/A
MAKUA RANGE*     N/A     70  63  78 E8G16       N/A
OAHU FOREST NW NOT AVBL
SCHOFIELD BRK*   N/A     64  59  82 N3          N/A
SCHOFIELD S*   NOT AVBL
WAIANAE VLY*   NOT AVBL
KUAOKALA*      NOT AVBL
HONOULIUULI*   NOT AVBL
MOKUOLOE IS*     N/A     73 N/A N/A NE9         N/A
PALEHUA*       NOT AVBL
WAIAWA PHB*    NOT AVBL
$$

HIZ012>013-050600-
MOLOKAI-

CITY           SKY/WX    TMP DP  RH WIND       PRES   REMARKS
MOLOKAI AIRPT  PTCLDY    70  60  70 NE9       30.07R
KALAUPAPA      NOT AVBL
MAKAPULAPAI*     N/A     72  61  68 E13         N/A
MOLOKAI 1*     NOT AVBL
PUU ALII*        N/A     53  53  99 N2G10       N/A
$$

HIZ016-050600-
KAHOOLAWE-

CITY           SKY/WX    TMP DP  RH WIND       PRES   REMARKS
KAHOOLAWE*     NOT AVBL
HAKIOAWA*      NOT AVBL
HONOKANAIA*    NOT AVBL
KANELOA*         N/A     72  61  68 E12G29    30.09R
KEALIALALO*    NOT AVBL
LUA MAKIKA*    NOT AVBL
$$

HIZ014>015-050600-
LANAI-

CITY           SKY/WX    TMP DP  RH WIND       PRES   REMARKS
LANAI CITY     FAIR      65  63  93 NE17G25   30.09S
LANAI 1*       NOT AVBL
$$

HIZ017>028-050600-
MAUI-

CITY           SKY/WX    TMP DP  RH WIND       PRES   REMARKS
KAHULUI        PTCLDY    71  59  65 NE9       30.07R
KAPALUA-W MAUI NOT AVBL
HANA AIRPORT   MOCLDY    70  66  88 CALM      30.11R
HANA*            N/A     70 N/A N/A SW2         N/A
HALEAKALA SUMM   N/A     36  12  38 NE18        N/A  VSB 0   WCI  25
MAALAEA BAY*     N/A     72 N/A N/A N16G26      N/A
HALEAKALA*     NOT AVBL
KAUPO GAP*     NOT AVBL
KULA 1*          N/A     46  45  93 NE3         N/A
$$

HIZ023>026-050600-
BIG ISLAND OF HAWAII COAST AND LOWER SLOPES-

CITY           SKY/WX    TMP DP  RH WIND       PRES   REMARKS
KAILUA KONA    MOCLDY    77  58  51 S9        30.02R
HILO           PTCLDY    73  60  63 N5        30.07R
HONOKAA*       NOT AVBL
KAWAIHAE MWT*  NOT AVBL
KAWAIHAE*        N/A     79 N/A N/A NE1         N/A
SOUTH POINT*     N/A     68 N/A N/A E13G18      N/A
UPOLU AIRPORT*   N/A     73 N/A N/A NE14G20     N/A
KAMUELA*       NOT AVBL
HAKALAU*         N/A     43  41  93 SW1G7       N/A
KALOKO-HONOKO*   N/A     73  59  60 E5        30.02R
PALI 2*          N/A     61  54  77 NE15G24     N/A
KEALAKOMO*       N/A     72  59  64 NE14G22     N/A
KAUPULEHU*     NOT AVBL
KAPAPALA*        N/A     60  59  96 NW5G13      N/A
LOWER KAHUKU*    N/A     57  57 100 CALM        N/A
PUHE CS*         N/A     79  54  41 SE3G14      N/A
PUHO CS*         N/A     72  61  67 E2          N/A
PTA KEAMUKU*   NOT AVBL
WAIKOLOA*      NOT AVBL
$$

HIZ027>028-050600-
BIG ISLAND OF HAWAII INTERIOR AND SUMMMITS-

CITY           SKY/WX    TMP DP  RH WIND       PRES   REMARKS
BRADSHAW FIELD CLOUDY    52  39  62 SW3       30.28R
MK VISITOR CEN   N/A     39  36  87 W2          N/A
MAUNA KEA*       N/A     27   0  31 CALM        N/A
MAUNA LOA*     NOT AVBL
MAUNA LOA 1*   NOT AVBL
PTA KIPUKA*      N/A     54  50  87 NW3G12      N/A
PTA RANGE 17*  NOT AVBL
PTA WEST*        N/A     55  48  76 NW1G12      N/A
NENE CABIN*      N/A     46  46 100 SW2         N/A
AHUMOA*        NOT AVBL
PTA PORTABLE*  NOT AVBL
PUU MALI*        N/A     45  32  61 E10         N/A
$$

HIC003-050600-
NORTHWEST ISLANDS-

CITY           SKY/WX    TMP DP  RH WIND       PRES   REMARKS
MIDWAY ISLAND  PTSUNNY   70  59  68 E21       30.29S HAZE
MIDWAY NOS*      N/A     70 N/A N/A MISG      30.28S
FRENCH FRIGATE NOT AVBL
$$

PHZ110>124-180-050600-
BUOY REPORTS

STATION/POSITION TIME  TEMP    WIND        PRES    WAVE   SWELL
                       AIR SEA DIR/SP/G            HT/PER HT/DIR
                 (UTC) (F)     (DEG/KT/KT) (MB)    (FT/S) (FT/D)
BUOY 51101       0510   70 74   40/ 21/ 27 1022.2
BUOY 51100       NOT AVBL
BUOY 51002       0510   75 76   70/ 14/ 17 1016.0
BUOY 51003       0510      77              1018.4
BUOY 51004       0510   73 75   70/ 12/ 16 1015.5
WAIMEA BAY#      NOT AVBL
MOKAPU POINT#    0456      76                N/A     7/17   5/360
LANAI#           0426      76                N/A     4/17   3/300
BARBERS PT#      0456      77                N/A     4/15   3/310
PAUWELA#         0456      76                N/A     7/17   5/340
HILO#            0513      76                N/A     8/17   5/330
KANEOHE BAY#     0456      76                N/A     6/ 9   3/340
KANEOHE BAY 2#   NOT AVBL
HANALEI#         NOT AVBL
KAHULUI HARBOR   0454   72 75   70/  8/ 12 1018.3R
HONOLULU HARBOR  0454   72 76   90/  4/  9 1018.3R
PEARL HARBOR#    0500      76                N/A     2/ 9
KILO NALU        NOT AVBL
HILO HARBOR      0454   72 77  340/  7/  9 1016.8R
MOKUOLOE         0436   73 74   70/  9/ 12 1018.3R
NAWILIWILI       0454   68 80   30/ 12/ 15 1019.5R
WHOTS BUOY       NOT AVBL
BUOY 51028       NOT AVBL
$$

......................KEY........................................
  SKY/WX - SKY CONDITIONS/PRESENT WEATHER
  TMP    - TEMPERATURE IN FAHRENHEIT
  DWPT   - DEWPOINT IN FAHRENHEIT
  RH     - RELATIVE HUMIDITY IN PERCENT
  WIND   - DIRECTION AND SPEED /MPH FOR ISLANDS...KTS FOR BUOYS/
  PRES   - MEAN SEA LEVEL PRESSURE IN INCHES OF HG
  VSB    - VISIBILITY IN MILES
  HX     - HEAT INDEX
  WCI    - WIND CHILL INDEX
  VRB    - VARIABLE WIND DIRECTION
  N/A    - NOT AVAILABLE




USA.gov is the U.S. government's official web portal to all federal, state and local government web resources and services.